Temp
-10 -11 -11 -11 -11 -11 -10 -11 -11 -11 -11 -11 -11 -11 -11 -11 -11 -11 -11 -11 -11 -11 -11 -11 -11 -11 -11 -11 -11 -11 -11 -11 -11 -11 -11 -11 -12 -12 -11 -11 -12 -12 -13
-10 -11 -11 -12 -12 -12 -11 -10 -11 -11 -11 -11 -11 -11 -11 -11 -11 -11 -11 -11 -11 -11 -11 -11 -11 -11 -10 -10 -10 -11 -11 -11 -11 -11 -11 -11 -11 -11 -12 -12 -12 -13 -13
-10 -11 -11 -12 -11 -12 -12 -11 -11 -11 -11 -11 -12 -12 -12 -11 -11 -11 -11 -11 -11 -11 -11 -11 -10 -10 -11 -11 -11 -11 -11 -11 -11 -12 -12 -11 -11 -11 -11 -12 -13 -14 -14
-10 -11 -11 -12 -12 -12 -12 -12 -12 -11 -11 -12 -12 -12 -12 -12 -12 -12 -11 -11 -11 -11 -11 -11 -11 -11 -11 -12 -12 -12 -11 -11 -12 -12 -12 -12 -12 -12 -12 -13 -13 -14 -14
-10 -11 -11 -11 -12 -12 -12 -12 -12 -12 -12 -12 -12 -12 -12 -12 -12 -11 -11 -11 -11 -11 -11 -11 -11 -11 -11 -11 -11 -12 -12 -12 -12 -12 -12 -13 -13 -14 -15 -14 -14 -14 -14
-10 -11 -11 -11 -12 -12 -12 -12 -12 -12 -12 -12 -12 -12 -12 -12 -11 -11 -11 -11 -11 -11 -11 -11 -11 -11 -11 -12 -12 -12 -12 -12 -13 -13 -13 -13 -14 -15 -15 -15 -15 -15 -15
-10 -10 -11 -12 -12 -12 -12 -12 -12 -12 -12 -12 -12 -12 -12 -12 -12 -12 -12 -12 -12 -11 -11 -12 -11 -11 -12 -12 -12 -12 -12 -13 -13 -13 -14 -15 -16 -16 -16 -17 -16 -16 -16
-10 -10 -10 -11 -11 -11 -12 -12 -12 -12 -12 -12 -12 -12 -12 -12 -12 -12 -12 -12 -12 -12 -12 -12 -12 -12 -12 -12 -13 -13 -14 -14 -14 -14 -15 -16 -17 -17 -19 -20 -21 -21 -23
-11 -10 -10 -11 -11 -11 -11 -12 -12 -12 -12 -12 -12 -12 -12 -12 -12 -12 -12 -12 -12 -12 -12 -12 -12 -12 -13 -13 -13 -14 -14 -14 -15 -16 -17 -18 -19 -20 -22 -23 -24 -25 -26
-11 -11 -11 -11 -11 -11 -12 -12 -12 -11 -11 -12 -12 -12 -12 -12 -12 -12 -12 -12 -12 -12 -12 -12 -13 -14 -14 -14 -14 -14 -14 -15 -16 -17 -18 -20 -22 -23 -23 -24 -26 -27 -27
-11 -11 -11 -11 -11 -11 -11 -11 -11 -12 -12 -12 -12 -12 -12 -12 -12 -12 -12 -12 -12 -13 -12 -13 -14 -14 -14 -14 -14 -15 -15 -16 -17 -19 -20 -22 -23 -24 -25 -27 -28 -28 -28
-11 -11 -12 -11 -12 -12 -12 -12 -12 -12 -12 -12 -12 -12 -12 -12 -12 -12 -13 -13 -13 -13 -13 -14 -14 -14 -14 -14 -14 -15 -17 -18 -19 -21 -23 -24 -24 -25 -27 -27 -27 -28 -28
-11 -11 -12 -12 -12 -12 -12 -13 -13 -13 -13 -13 -13 -13 -12 -13 -13 -13 -13 -13 -13 -13 -14 -14 -14 -14 -14 -15 -15 -17 -18 -20 -22 -24 -25 -25 -25 -27 -27 -27 -28 -28 -28
-12 -12 -12 -12 -12 -12 -12 -13 -13 -13 -13 -13 -13 -13 -13 -13 -13 -14 -13 -13 -13 -14 -14 -15 -15 -14 -15 -16 -17 -18 -19 -21 -24 -25 -25 -25 -27 -27 -27 -27 -28 -28 -28
-11 -11 -12 -12 -12 -13 -13 -13 -13 -13 -13 -13 -13 -13 -14 -14 -14 -14 -14 -14 -14 -15 -15 -15 -15 -16 -17 -18 -18 -19 -21 -23 -25 -25 -26 -26 -27 -27 -27 -27 -27 -28 -28
-11 -12 -12 -12 -12 -13 -13 -13 -13 -13 -13 -14 -14 -14 -14 -14 -14 -14 -14 -15 -15 -15 -15 -15 -17 -18 -18 -18 -19 -20 -22 -25 -26 -26 -26 -26 -27 -27 -27 -28 -28 -28 -28
-12 -11 -12 -12 -12 -13 -13 -13 -13 -13 -14 -14 -14 -14 -14 -14 -15 -15 -15 -15 -15 -16 -16 -17 -18 -18 -18 -19 -20 -22 -24 -26 -26 -26 -26 -26 -27 -27 -27 -27 -27 -28 -28
-12 -12 -12 -13 -13 -13 -13 -13 -13 -14 -14 -14 -14 -14 -14 -15 -15 -15 -16 -16 -16 -17 -17 -18 -18 -19 -19 -20 -22 -24 -26 -26 -26 -26 -26 -26 -27 -27 -27 -27 -27 -27 -28
-12 -12 -12 -12 -12 -12 -13 -13 -14 -14 -14 -14 -14 -14 -16 -16 -16 -16 -16 -16 -17 -18 -18 -19 -19 -19 -20 -22 -24 -26 -27 -27 -27 -27 -27 -27 -27 -27 -27 -27 -27 -27 -28
-12 -12 -12 -13 -13 -13 -13 -13 -14 -14 -14 -14 -15 -15 -16 -16 -16 -16 -16 -17 -18 -18 -19 -19 -19 -20 -22 -24 -26 -27 -27 -27 -27 -27 -27 -27 -27 -27 -27 -27 -27 -28 -29
-12 -12 -12 -12 -13 -13 -13 -13 -13 -14 -14 -15 -15 -15 -16 -16 -16 -17 -17 -18 -18 -19 -19 -19 -21 -22 -24 -26 -27 -27 -27 -27 -27 -27 -27 -27 -27 -27 -27 -27 -28 -29 -30
-13 -13 -13 -13 -13 -13 -13 -14 -14 -15 -15 -15 -15 -16 -16 -16 -17 -17 -18 -19 -19 -19 -20 -21 -22 -24 -26 -27 -27 -27 -27 -27 -27 -27 -27 -27 -27 -27 -27 -28 -28 -30 -30
-13 -13 -13 -13 -13 -14 -14 -14 -15 -16 -16 -16 -16 -16 -16 -17 -18 -18 -19 -19 -19 -20 -21 -22 -23 -25 -26 -27 -27 -28 -28 -27 -27 -27 -27 -27 -27 -27 -27 -28 -29 -30 -30
-13 -13 -13 -14 -14 -15 -15 -15 -16 -16 -16 -16 -16 -17 -18 -18 -19 -19 -19 -19 -20 -21 -22 -23 -25 -26 -26 -27 -27 -27 -27 -27 -27 -28 -28 -28 -27 -27 -27 -28 -29 -29 -29
-14 -14 -14 -14 -15 -15 -15 -16 -16 -16 -17 -17 -18 -18 -19 -19 -19 -20 -20 -20 -21 -23 -24 -25 -26 -26 -27 -27 -27 -27 -27 -27 -27 -27 -27 -27 -27 -28 -28 -28 -29 -29 -29
-15 -15 -15 -15 -15 -16 -16 -16 -17 -17 -18 -18 -19 -19 -19 -20 -20 -20 -21 -22 -23 -25 -27 -27 -27 -27 -27 -27 -27 -27 -27 -27 -27 -27 -27 -28 -28 -28 -28 -28 -29 -29 -29
Height
5823 5824 5824 5826 5827 5827 5829 5828 5828 5829 5829 5828 5829 5827 5828 5827 5827 5827 5826 5824 5823 5821 5820 5819 5817 5814 5811 5809 5806 5802 5799 5795 5792 5788 5785 5781 5777 5774 5770 5766 5761 5756 5752
5816 5817 5817 5818 5818 5820 5824 5823 5821 5821 5822 5821 5822 5821 5821 5821 5821 5820 5819 5818 5818 5816 5814 5811 5809 5805 5802 5798 5794 5789 5784 5779 5774 5771 5767 5767 5764 5759 5754 5748 5743 5740 5735
5808 5809 5810 5810 5812 5813 5815 5816 5815 5814 5814 5815 5814 5813 5814 5815 5814 5813 5812 5811 5810 5807 5803 5800 5797 5792 5788 5784 5780 5775 5771 5767 5762 5756 5752 5749 5747 5742 5736 5730 5724 5717 5714
5800 5802 5803 5804 5805 5806 5807 5808 5808 5807 5807 5807 5807 5806 5807 5807 5807 5805 5804 5802 5798 5795 5793 5789 5785 5781 5777 5772 5768 5763 5758 5753 5747 5742 5736 5727 5720 5715 5717 5708 5702 5698 5694
5792 5795 5795 5796 5798 5799 5800 5800 5799 5798 5798 5798 5799 5799 5799 5799 5797 5796 5794 5791 5788 5785 5781 5777 5772 5768 5763 5759 5753 5747 5742 5737 5730 5721 5713 5705 5695 5683 5677 5685 5677 5672 5666
5781 5785 5786 5788 5790 5792 5793 5792 5792 5791 5791 5790 5790 5790 5790 5790 5788 5786 5783 5780 5776 5772 5768 5763 5759 5755 5750 5744 5738 5732 5725 5716 5707 5699 5690 5680 5671 5662 5651 5642 5645 5638 5637
5771 5774 5777 5779 5781 5784 5784 5784 5784 5784 5784 5784 5784 5783 5780 5778 5776 5774 5772 5769 5765 5761 5756 5752 5748 5743 5737 5730 5722 5714 5704 5695 5686 5677 5666 5654 5641 5630 5621 5610 5605 5597 5601
5763 5765 5768 5770 5773 5774 5775 5775 5775 5775 5774 5775 5774 5773 5771 5769 5767 5765 5762 5758 5753 5748 5744 5741 5735 5729 5721 5713 5705 5695 5685 5675 5665 5653 5640 5631 5620 5608 5594 5581 5569 5562 5557
5752 5755 5759 5761 5763 5765 5765 5765 5765 5766 5766 5766 5764 5763 5762 5761 5759 5755 5751 5746 5741 5736 5732 5727 5720 5713 5705 5695 5685 5676 5667 5656 5643 5632 5620 5608 5596 5583 5571 5561 5548 5537 5530
5742 5745 5749 5752 5753 5754 5754 5755 5756 5757 5757 5756 5754 5753 5752 5750 5748 5744 5740 5735 5728 5723 5718 5712 5705 5696 5686 5678 5670 5660 5648 5636 5622 5611 5600 5586 5575 5565 5553 5541 5531 5525 5516
5733 5735 5738 5740 5742 5744 5746 5747 5748 5747 5746 5745 5743 5743 5741 5739 5736 5732 5726 5720 5715 5710 5705 5697 5689 5681 5673 5663 5653 5642 5628 5617 5604 5589 5579 5569 5557 5549 5536 5526 5519 5512 5505
5724 5725 5727 5729 5731 5734 5736 5737 5736 5736 5735 5734 5733 5731 5730 5727 5724 5718 5713 5707 5702 5697 5690 5682 5675 5666 5657 5647 5636 5622 5609 5597 5587 5575 5564 5555 5545 5533 5523 5515 5507 5500 5492
5714 5715 5716 5720 5722 5724 5725 5726 5725 5724 5723 5723 5721 5721 5718 5715 5710 5705 5699 5694 5688 5682 5675 5666 5658 5650 5640 5629 5617 5605 5593 5581 5570 5561 5551 5541 5532 5523 5514 5507 5500 5493 5486
5704 5706 5708 5710 5711 5713 5714 5715 5714 5714 5713 5712 5711 5708 5705 5700 5695 5691 5685 5679 5672 5666 5659 5652 5642 5632 5621 5612 5601 5591 5578 5567 5557 5547 5539 5530 5520 5513 5506 5500 5492 5485 5479
5695 5695 5696 5699 5700 5702 5703 5703 5702 5702 5700 5699 5697 5694 5691 5687 5683 5675 5669 5664 5658 5651 5643 5633 5624 5615 5606 5595 5586 5576 5566 5554 5545 5537 5528 5518 5509 5502 5495 5489 5483 5476 5470
5684 5684 5687 5689 5691 5690 5690 5690 5689 5688 5686 5686 5684 5681 5677 5672 5665 5661 5656 5650 5642 5634 5626 5618 5609 5599 5590 5581 5571 5561 5552 5544 5537 5530 5520 5509 5500 5492 5485 5476 5469 5463 5456
5673 5677 5677 5677 5678 5677 5676 5676 5676 5675 5674 5673 5670 5665 5661 5657 5652 5646 5640 5633 5626 5618 5610 5603 5595 5584 5575 5565 5554 5545 5538 5532 5525 5517 5509 5501 5492 5483 5475 5467 5458 5449 5439
5665 5665 5663 5664 5664 5665 5665 5665 5664 5662 5661 5659 5656 5652 5647 5642 5636 5631 5626 5618 5612 5605 5596 5588 5579 5569 5559 5549 5540 5533 5527 5519 5512 5505 5497 5488 5480 5470 5462 5455 5447 5437 5426
5650 5649 5650 5653 5652 5652 5652 5652 5651 5649 5647 5645 5641 5636 5631 5626 5622 5617 5611 5605 5598 5591 5582 5573 5563 5553 5544 5536 5528 5522 5516 5509 5502 5494 5485 5476 5467 5458 5450 5442 5432 5423 5412
5635 5638 5639 5638 5639 5640 5640 5639 5638 5636 5633 5630 5625 5621 5617 5613 5607 5602 5597 5591 5584 5576 5568 5558 5549 5539 5531 5523 5516 5509 5502 5496 5490 5483 5475 5466 5457 5448 5438 5428 5418 5408 5397
5626 5625 5625 5626 5626 5625 5625 5624 5622 5620 5617 5614 5610 5607 5603 5598 5593 5589 5583 5577 5570 5561 5554 5544 5534 5526 5518 5511 5505 5498 5490 5485 5479 5470 5463 5455 5447 5438 5428 5417 5406 5396 5388
5612 5613 5614 5614 5614 5613 5612 5609 5608 5605 5602 5600 5597 5593 5589 5585 5580 5575 5569 5562 5554 5547 5538 5529 5522 5515 5507 5499 5493 5487 5478 5471 5464 5457 5450 5443 5436 5428 5419 5409 5398 5389 5383
5601 5602 5601 5601 5600 5599 5597 5595 5593 5591 5589 5586 5583 5579 5575 5570 5565 5559 5553 5546 5539 5531 5523 5516 5511 5506 5498 5492 5484 5476 5467 5458 5450 5442 5436 5431 5426 5419 5412 5403 5394 5387 5382
5588 5589 5588 5587 5585 5583 5582 5580 5579 5577 5574 5571 5568 5564 5560 5555 5549 5544 5538 5531 5523 5515 5509 5504 5500 5495 5488 5481 5472 5465 5456 5448 5441 5433 5426 5421 5417 5412 5405 5397 5390 5385 5382
5574 5575 5574 5572 5570 5569 5568 5567 5564 5562 5559 5557 5553 5549 5545 5539 5534 5528 5521 5514 5507 5502 5497 5491 5487 5483 5477 5469 5461 5453 5446 5439 5432 5425 5419 5414 5410 5405 5399 5392 5387 5383 5381
5556 5556 5557 5556 5555 5554 5553 5551 5549 5547 5544 5540 5537 5533 5529 5523 5517 5512 5506 5499 5492 5486 5483 5479 5475 5469 5462 5456 5450 5444 5437 5431 5424 5418 5412 5408 5404 5400 5393 5388 5383 5381 5379
Wind_Speed
24 25 26 28 27 27 27 26 24 26 26 26 27 27 28 30 32 31 31 34 34 36 37 40 43 45 47 48 49 49 49 51 53 56 57 58 60 60 62 63 64 65 63
26 24 27 29 29 28 24 25 26 27 29 28 27 29 29 31 31 32 35 37 37 39 41 44 47 48 50 52 52 54 56 59 61 63 66 68 70 70 71 74 74 74 72
23 23 26 29 28 28 26 24 27 32 32 30 31 32 32 32 34 35 37 38 40 44 46 47 48 51 54 56 58 61 63 66 68 69 73 76 78 80 80 80 81 79 77
26 25 26 27 28 28 26 27 31 34 36 34 32 35 34 35 37 38 38 40 43 47 49 49 52 55 57 59 62 66 70 73 75 77 80 84 86 89 89 88 89 87 82
28 27 26 29 29 28 26 29 32 36 37 35 35 36 36 37 39 40 41 44 47 49 52 54 56 58 60 64 68 71 75 77 79 80 82 85 90 94 92 90 91 91 90
28 29 30 31 31 32 30 32 33 36 37 37 37 36 37 39 41 43 46 48 50 53 56 58 59 60 63 67 70 72 74 78 81 84 88 93 97 97 97 99 96 97 96
33 31 32 32 34 33 32 32 35 36 39 39 39 39 40 41 43 46 47 50 54 57 59 60 61 64 68 70 73 76 79 82 86 91 94 97 98 100 101 101 103 103 100
34 33 34 33 33 32 32 33 34 36 38 40 41 42 43 44 45 48 51 54 58 59 61 62 63 68 71 73 76 79 82 88 92 96 98 101 101 99 92 88 85 84 79
36 35 34 34 34 34 34 36 37 40 41 42 43 43 45 48 50 53 56 58 60 62 63 65 67 72 72 76 79 83 87 91 95 97 99 97 90 81 77 77 80 76 67
35 35 33 32 35 36 37 39 40 41 41 44 45 46 48 51 52 56 59 60 63 63 65 68 71 72 74 78 82 87 91 95 96 98 96 85 76 73 74 74 63 56 58
34 34 33 35 38 38 37 39 39 41 42 45 47 49 51 53 55 58 61 62 65 67 69 72 73 74 76 81 85 90 94 96 96 90 81 70 69 67 63 57 53 56 60
30 31 34 36 38 38 39 41 41 41 44 48 49 52 53 55 57 59 62 65 66 70 72 73 74 76 81 85 88 92 94 92 87 76 65 63 62 58 50 50 49 47 39
35 35 35 36 37 38 39 41 43 45 47 50 52 52 54 56 58 60 64 66 70 73 72 72 74 79 82 87 90 93 91 86 71 61 58 58 55 49 44 43 41 40 41
36 37 38 40 40 41 42 42 45 47 48 50 52 54 55 55 58 62 66 69 70 71 71 74 78 80 85 89 91 90 85 74 61 56 55 54 49 45 42 43 44 44 43
40 42 43 41 40 38 40 43 44 46 49 51 52 53 55 58 61 65 68 69 69 70 72 76 81 85 87 88 89 86 78 63 53 52 52 51 48 48 49 51 50 48 47
41 41 40 38 38 39 40 43 45 48 49 51 52 53 56 59 62 65 66 68 69 71 75 78 84 86 87 89 86 81 69 52 49 48 50 50 50 51 52 52 53 54 54
39 37 38 40 41 41 43 45 47 49 51 52 52 55 58 59 60 63 66 67 70 73 77 82 85 86 88 85 79 70 58 50 48 48 49 50 52 53 52 52 55 59 60
38 38 41 43 43 44 46 46 48 49 48 50 54 56 57 59 62 64 66 69 73 76 80 83 85 86 83 79 71 61 53 51 49 49 50 53 54 56 53 52 55 58 53
42 45 47 45 46 49 49 49 49 48 50 53 55 56 57 61 63 65 68 70 75 79 81 82 84 82 79 73 62 54 52 50 50 49 51 54 54 56 53 54 59 54 49
49 46 44 45 45 46 47 49 51 52 53 56 56 57 59 62 63 66 69 73 77 78 79 82 80 77 70 63 57 55 53 51 49 50 51 53 54 54 53 58 55 52 45
43 43 44 43 45 49 49 51 53 54 56 58 58 59 59 61 64 68 73 75 76 78 79 77 73 68 63 57 55 54 52 52 52 52 52 52 53 54 52 55 51 44 36
43 45 47 48 50 52 53 55 55 56 58 60 59 58 60 63 68 72 74 74 75 76 75 71 68 61 57 55 55 55 56 57 57 56 56 51 50 49 49 49 44 37 29
47 50 50 50 51 52 54 55 54 54 56 55 57 58 62 67 70 72 73 72 73 72 71 68 61 57 55 54 55 56 58 58 55 52 49 45 44 45 46 45 36 28 22
53 53 51 52 54 53 53 51 51 54 54 56 59 63 66 67 69 71 70 71 70 68 67 62 56 55 54 55 54 54 49 45 45 44 41 38 39 39 42 39 28 21 19
48 50 50 50 48 48 49 50 50 53 56 60 62 65 66 68 68 67 68 69 68 64 58 55 53 53 54 54 51 45 44 41 40 40 35 32 34 35 39 35 22 16 15
46 46 45 45 46 48 50 51 53 57 59 61 63 64 66 65 66 67 66 66 62 55 51 52 53 56 55 51 45 41 41 39 38 37 32 29 31 33 36 32 17 13 12
Wind_Direction
255 254 253 252 249 249 255 258 265 268 259 260 260 263 262 261 263 266 267 269 272 276 280 283 286 288 288 289 290 288 287 286 287 286 287 288 290 292 292 290 287 285 282
253 256 253 253 254 250 243 256 266 262 261 266 266 262 262 263 266 268 270 274 278 280 281 282 284 287 290 291 292 293 293 293 293 291 290 291 292 293 293 290 289 290 289
247 255 255 256 259 257 254 247 261 271 270 267 268 269 269 271 274 275 276 280 282 285 288 292 295 294 296 296 294 294 294 293 292 294 293 292 291 290 289 289 291 290 290
245 244 252 252 251 256 261 258 259 265 268 269 270 270 272 276 277 277 280 283 287 290 292 294 295 295 295 293 293 293 294 294 295 294 294 295 295 294 290 291 291 291 290
249 241 242 248 254 259 259 256 257 259 264 267 268 273 276 276 276 279 280 285 288 292 295 295 295 297 298 298 297 297 296 297 298 299 298 297 296 295 296 294 293 292 291
248 240 236 240 249 260 256 254 256 254 258 261 264 267 269 273 278 280 282 286 291 294 296 298 299 300 300 299 299 299 301 302 301 300 300 300 299 299 299 298 297 297 297
242 237 233 237 246 255 256 256 256 257 259 260 263 264 265 270 275 279 285 290 294 295 295 298 304 305 302 301 302 304 303 302 302 303 303 303 304 305 307 310 309 305 302
248 243 242 242 245 250 253 252 254 255 258 262 263 264 269 275 280 285 288 290 291 293 297 303 305 303 301 302 304 304 304 306 306 306 306 307 311 315 315 312 306 300 293
249 245 244 244 245 247 248 252 253 255 259 262 264 271 277 280 283 286 289 292 294 296 302 303 302 302 304 306 305 305 306 306 308 309 311 316 319 315 311 306 299 297 295
249 251 253 250 247 247 248 251 253 257 260 263 267 270 275 279 284 287 290 294 296 300 302 301 302 304 305 305 305 306 308 309 310 313 318 321 317 313 307 303 302 301 303
250 249 251 250 249 250 252 254 257 258 259 262 267 273 277 282 285 287 293 296 299 299 301 301 303 304 305 305 306 309 310 311 314 322 323 317 314 311 310 307 304 303 304
247 248 248 250 251 254 257 258 258 259 260 263 269 273 278 284 287 291 295 295 297 299 300 302 304 305 305 306 309 310 311 317 323 322 316 316 315 318 317 317 311 313 312
245 244 246 250 251 252 253 254 256 258 260 265 271 279 284 288 293 294 292 295 297 299 301 303 305 305 306 309 310 311 318 324 322 316 317 318 322 320 317 323 322 318 313
242 244 246 249 251 252 252 252 255 259 265 271 278 282 286 289 289 291 293 294 297 300 303 303 304 307 308 310 312 316 323 323 318 317 319 321 321 317 315 316 314 312 312
246 245 247 249 251 254 254 255 260 264 268 274 279 284 288 289 292 290 291 296 298 300 302 305 307 308 309 311 315 321 324 321 315 317 319 320 316 315 312 312 312 308 305
253 253 253 254 256 254 255 259 263 267 272 278 284 288 288 286 287 293 295 295 299 303 305 306 306 308 311 312 318 322 322 316 313 315 317 319 315 313 312 310 309 308 306
248 253 254 254 256 258 259 262 267 272 275 279 285 287 288 289 289 290 294 299 302 304 305 305 306 309 310 315 320 319 318 312 310 313 315 315 314 310 308 310 309 309 307
257 253 252 253 256 260 264 269 272 275 280 285 288 288 287 288 290 294 299 301 303 303 303 304 308 308 315 320 318 316 313 310 311 312 314 315 313 315 310 312 309 310 305
257 257 258 262 265 268 270 273 277 282 286 287 287 288 287 291 295 297 299 300 299 300 302 306 306 314 320 319 315 311 310 310 312 313 313 314 315 317 314 313 314 312 305
255 260 265 268 271 274 277 282 284 286 289 291 291 290 290 293 295 296 297 297 297 301 305 306 313 318 318 314 311 310 311 310 311 312 312 313 315 318 315 317 317 315 310
262 262 264 268 274 277 281 283 285 288 290 290 288 288 290 292 293 294 294 296 300 303 303 309 316 317 314 310 309 309 309 310 312 311 311 312 314 317 318 320 320 322 319
257 262 268 274 276 280 283 283 283 284 285 285 286 288 289 290 291 292 295 298 300 302 308 314 315 314 310 310 310 310 311 312 311 309 307 309 312 316 319 322 325 327 320
262 268 274 276 281 282 281 280 283 282 282 285 285 286 287 288 289 292 295 297 301 306 311 313 312 310 309 309 311 312 313 313 312 310 305 305 309 314 320 323 327 330 333
269 275 278 277 278 278 278 279 279 280 281 282 284 284 285 287 290 292 296 300 305 308 311 310 307 308 308 312 313 314 315 316 315 315 312 306 309 315 321 323 326 326 327
272 276 275 275 277 278 278 277 277 279 280 281 281 282 285 287 290 296 301 303 306 308 306 304 305 309 313 315 316 317 317 320 320 319 315 309 313 317 323 323 322 320 317
272 272 275 279 278 274 273 274 276 278 279 279 280 283 286 291 295 300 302 305 304 302 302 304 308 313 316 317 316 319 319 321 323 321 316 312 315 319 324 323 313 317 313